FENGYUN 1C DEB, 32210

Orbit data source: Space-Track

FENGYUN 1C DEB, 32210 is space debris in SSO originally from a launch on Mon, 10 May 1999 UTC launched from the Taiyaun Space Center, China (TSC). Fengyun 1C debris stems from the Chinese weather satellite Fengyun-1C, which was intentionally destroyed by a Chinese anti-satellite missile in 2007. This event dramatically increased the amount of space debris, with thousands of trackable fragments posing hazards to satellites and human spaceflight. The Fengyun 1C debris cloud has become a focal point in discussions about space sustainability and the need for international regulations to prevent the creation of new debris.

Loading next visibility...
Identifier
32210, 1999-025CVG
Orbit
SSO
Country
Flag of CNCN / PRC
Related business
Manufacturer
Unknown
Mission
Spacecraft
Bus & Motor
Unknown
Mass
Unknown
Launch date (UTC)
1999-05-10 (27 years ago)
Launch vehicle
Unknown
Launch site
Taiyaun Space Center, China (TSC)
Object type
Payload
Rocket body
Debris
Shape & HBR
Unknown shape, 1.1 m
Radar Cross Section
Medium (>0.1 m² and <1 m²)

Expand to show TLE details & history
Last TLE update: 1 month ago

TLE from 1 month ago
0 FENGYUN 1C DEB
1 32210U 99025CVG 26209.36189515  .00001405  00000-0  77179-3 0  9994
2 32210  98.8550 260.1811 0068708 245.1958 114.2056 14.12165836645985
Epoch: 2026-07-28T08:41Z
TLE epoch observation values (Epoch: 2026-07-28T08:41:07.740Z)
Latitude
-0.00005°
Longitude
-176.13335°
Altitude
875.524 km
Speed
7.404 km/s
True Right ascension
17h 20m 43s
True Declination
0° 00' 00"
Sunlit
Object was in full shadow at epoch
Visualization orbit readout
Latitude
Unknown
Longitude
Unknown
Altitude
Unknown
Speed
Unknown
Apparent Right ascension
Unknown
Apparent Declination
Unknown
Sunlit
N/A
Visualization observer readout
Local Sidereal Time
11:14:08
Azimuth
Unknown
Elevation
Unknown
Doppler factor
Unknown
Orbital elements
Apogee altitude
898.803 km
Perigee altitude
799.488 km
Semi-major axis
7,227.283 km
Eccentricity
0.00687
Inclination
98.855°
RAAN
260.1811°
Arg. of periapsis
245.1958°
True anomaly
114.92117°
Mean anomaly
114.2056°
Eccentric anomaly
114.56364°
Mean motion
3.53249 °/min
Orbital period
101.91 mins
BSTAR
0.00077179
Loading maneuver chart data...
Computing Atmospheric mass density...

Documentation

Showing up to 5 results
|